DL4FEU Weather Reports


Display with metric or nautical units.
time (UTC)temp
F
wind
direction
speed
MPH
gust
MPH
rain 1hr
in
rain 24hr
in
rain mn
in
humidity
%
barometer
mb
20260503234600 51 63 5.0 0.0 0.00 0.00 0.00 84 1017.8
20260503233100 51 64 4.0 0.0 0.00 0.00 0.00 84 1018.0
20260503231555 52 65 4.0 0.0 0.00 0.00 0.00 84 1017.9
20260503230111 52 65 3.0 0.0 0.00 0.00 0.00 84 1017.9
20260503224550 53 67 4.0 0.0 0.00 0.00 0.00 84 1018.0
20260503223102 53 75 3.0 0.0 0.00 0.00 0.00 83 1018.0
20260503221550 54 96 3.0 0.0 0.00 0.00 0.00 83 1018.0
20260503220041 55 126 1.0 0.0 0.00 0.00 0.00 82 1017.6
20260503214552 56 127 1.0 0.0 0.00 0.00 0.00 81 1017.6
20260503213043 57 127 3.0 0.0 0.00 0.00 0.00 80 1017.7
20260503211541 57 128 0.0 0.0 0.00 0.00 0.00 78 1017.7
20260503210039 58 128 1.0 0.0 0.00 0.00 0.00 76 1017.5
20260503204543 59 204 0.0 0.0 0.00 0.00 0.00 73 1017.3
20260503203038 60 204 0.0 0.0 0.00 0.00 0.00 68 1017.4
20260503201541 61 204 2.0 0.0 0.00 0.00 0.00 63 1017.7
20260503200037 63 212 7.0 0.0 0.00 0.00 0.00 58 1017.7
20260503194542 64 230 9.0 0.0 0.00 0.00 0.00 53 1017.6
20260503193037 66 202 8.0 0.0 0.00 0.00 0.00 50 1017.6
20260503191536 66 208 8.0 0.0 0.00 0.00 0.00 49 1017.2
20260503190042 67 235 5.0 0.0 0.00 0.00 0.00 50 1016.9
20260503184535 68 242 7.0 0.0 0.00 0.00 0.00 48 1016.6
20260503183039 68 225 5.0 0.0 0.00 0.00 0.00 48 1016.6
20260503181553 69 250 1.0 0.0 0.00 0.00 0.00 47 1016.4
20260503180045 70 242 1.0 0.0 0.00 0.00 0.00 45 1016.1
20260503174534 71 241 1.0 0.0 0.00 0.00 0.00 43 1015.9
20260503173034 71 228 4.0 0.0 0.00 0.00 0.00 41 1015.8
20260503171533 72 217 1.0 0.0 0.00 0.00 0.00 39 1015.8
20260503081534 65 198 4.0 0.0 0.00 0.00 0.00 51 1018.9
20260503071519 60 58 0.0 0.0 0.00 0.00 0.00 70 1019.3
20260503054600 52 58 3.0 0.0 0.00 0.00 0.00 81 1018.7
20260503053057 52 58 2.0 0.0 0.00 0.00 0.00 81 1018.8
20260503051555 51 58 1.0 0.0 0.00 0.00 0.00 82 1018.7
20260503050053 50 58 2.0 0.0 0.00 0.00 0.00 82 1018.6
20260503044602 50 58 2.0 0.0 0.00 0.00 0.00 82 1018.6
20260503043053 50 58 0.0 0.0 0.00 0.00 0.00 82 1018.7
20260503041608 50 58 2.0 0.0 0.00 0.00 0.00 82 1018.3
20260503040038 49 58 5.0 0.0 0.00 0.00 0.00 83 1018.0
20260503034530 49 60 4.0 0.0 0.00 0.00 0.00 84 1018.4
20260503033028 49 60 5.0 0.0 0.00 0.00 0.00 85 1018.5
20260503031526 50 59 3.0 0.0 0.00 0.00 0.00 85 1018.4
20260503030025 50 59 3.0 0.0 0.00 0.00 0.00 85 1018.5
20260503024523 50 59 4.0 0.0 0.00 0.00 0.00 85 1018.4
20260503023020 51 61 5.0 0.0 0.00 0.00 0.00 85 1018.6
20260503021519 51 61 4.0 0.0 0.00 0.00 0.00 85 1018.9
20260503020015 52 61 4.0 0.0 0.00 0.00 0.00 84 1018.9
20260503014513 52 61 4.0 0.0 0.00 0.00 0.00 84 1018.9
20260503013012 52 61 4.0 0.0 0.00 0.00 0.00 84 1018.8
20260503011523 52 61 4.0 0.0 0.00 0.00 0.00 83 1018.9
20260503010009 52 61 3.0 0.0 0.00 0.00 0.00 83 1018.9
20260503004504 53 61 4.0 0.0 0.00 0.00 0.00 82 1019.0
20260503003003 53 61 5.0 0.0 0.00 0.00 0.00 81 1019.0
20260503001605 54 61 5.0 0.0 0.00 0.00 0.00 81 1019.0
20260503000056 54 61 4.0 0.0 0.00 0.00 0.00 80 1019.2